User: anonymous   Login
Location: Home
(40.5300°N, 105.0300°W)
Time: 16:06:32
(UTC-06:00)
Language:

STARLINK-2705 - Orbit

View from above orbital plane
View from above orbital plane
View from above satellite
View from above satellite

Ground track
Ground track

The orbit data is extracted from the following two-line orbital elements,

1 48672C 21044AL  21266.37516815  .00006095  00000-0  40823-3 0  2668
2 48672  53.0539 221.3911 0001780  65.0742 148.8563 15.06402402    13
Epoch (UTC): 23 September 2021 09:00:14
Eccentricity: 0.0001780
inclination: 53.0539°
perigee height: 546 km
apogee height: 548 km
right ascension of ascending node: 221.3911°
argument of perigee: 65.0742°
revolutions per day: 15.06402402
mean anomaly at epoch: 148.8563°
orbit number at epoch: 1

The dashed part of the orbit path shows where the satellite is in the earth's shadow,  

DLR